Hyannis, MA

5:02 PM EST on February 24, 2017 (GMT -0500)
Barnstable Municipal-Boardman-Polando Field

Weather History for KHYA - September, 2012

Change the Weather History Date:

Thursday, September 27, 2012

  Actual Average Record
Temperature  
Mean Temperature 57 °F -  
Max Temperature 68 °F 67 °F 80 °F (1930)
Min Temperature 46 °F 50 °F 30 °F (1966)
Degree Days  
Heating Degree Days 8    
Growing Degree Days 7 (Base 50)    
Moisture  
Dew Point 56 °F    
Average Humidity 83    
Maximum Humidity 97    
Minimum Humidity 56    
Precipitation  
Precipitation 0.00 in - - ()
Sea Level Pressure  
Sea Level Pressure 30.12 in    
Wind  
Wind Speed 8 mph (NW)    
Max Wind Speed 16 mph    
Max Gust Speed 24 mph    
Visibility 10 miles    
Events      
Averages and records for this station are not official NWS values.
T = Trace of Precipitation, MM = Missing Value Source: NWS Daily Summary

Daily Weather History Graph

Daily Weather History Graph

Search for Another Location

Airport or City:

Trip Planner

Search our weather history database for the weather conditions in past years. The results will help you decide how hot, cold, wet, or windy it might be!

Date:

Astronomy

Sep. 27, 2012 Rise Set
Actual Time 6:34 AM EDT 6:28 PM EDT
Civil Twilight 6:06 AM EDT 6:56 PM EDT
Nautical Twilight 5:34 AM EDT 7:28 PM EDT
Astronomical Twilight 5:01 AM EDT 8:01 PM EDT
Moon 4:59 PM EDT (9/27) 3:58 AM EDT (9/27)
Length of Visible Light 12h 50m
Length of Day
11h 54m
Waxing Gibbous, 94% of the Moon is Illuminated
Sep 27
Waxing Gibbous
Sep 29
Full
Oct 8
Last Quarter
Oct 15
New
Oct 21
First Quarter

Hourly Weather History & Observations

Time (EDT) Temp. Dew Point Humidity Pressure Visibility Wind Dir Wind Speed Gust Speed Precip Events Conditions
12:18 AM 66.2 °F 64.4 °F 94% 30.02 in 10.0 mi WSW 8.1 mph - N/A   Overcast
12:56 AM 66.9 °F 64.9 °F 93% 30.02 in 10.0 mi SW 6.9 mph - N/A   Mostly Cloudy
1:56 AM 66.9 °F 64.9 °F 93% 30.01 in 10.0 mi WSW 9.2 mph - N/A   Overcast
2:56 AM 66.2 °F 64.4 °F 94% 30.00 in 9.0 mi SW 9.2 mph - N/A   Clear
3:56 AM 64.9 °F 64.0 °F 97% 30.01 in 9.0 mi WSW 5.8 mph - N/A   Clear
4:56 AM 64.9 °F 64.0 °F 97% 30.02 in 9.0 mi WSW 8.1 mph - N/A   Mostly Cloudy
5:56 AM 64.9 °F 64.0 °F 97% 30.04 in 10.0 mi West 6.9 mph - N/A   Mostly Cloudy
6:56 AM 64.9 °F 63.0 °F 93% 30.07 in 10.0 mi WSW 4.6 mph - N/A   Mostly Cloudy
7:56 AM 64.9 °F 62.1 °F 90% 30.09 in 10.0 mi WNW 8.1 mph - N/A   Overcast
8:56 AM 66.0 °F 61.0 °F 84% 30.10 in 10.0 mi NW 10.4 mph - N/A   Overcast
9:56 AM 66.0 °F 60.1 °F 81% 30.13 in 10.0 mi North 15.0 mph 21.9 mph N/A   Mostly Cloudy
10:56 AM 64.9 °F 57.0 °F 75% 30.14 in 10.0 mi North 16.1 mph 24.2 mph N/A   Clear
11:28 AM 64.4 °F 57.2 °F 77% 30.15 in 10.0 mi North 11.5 mph 23.0 mph N/A   Mostly Cloudy
11:35 AM 64.4 °F 57.2 °F 77% 30.15 in 10.0 mi North 13.8 mph 23.0 mph N/A   Clear
11:56 AM 64.9 °F 57.0 °F 75% 30.14 in 10.0 mi NNW 12.7 mph 20.7 mph N/A   Clear
12:56 PM 64.9 °F 53.1 °F 65% 30.12 in 10.0 mi NNE 15.0 mph 23.0 mph N/A   Clear
1:56 PM 66.0 °F 50.0 °F 56% 30.14 in 10.0 mi NNE 12.7 mph 23.0 mph N/A   Clear
2:56 PM 66.9 °F 52.0 °F 59% 30.13 in 10.0 mi NNE 11.5 mph 19.6 mph N/A   Clear
3:56 PM 64.9 °F 52.0 °F 63% 30.14 in 10.0 mi NNE 9.2 mph - N/A   Clear
4:56 PM 63.0 °F 48.9 °F 60% 30.15 in 10.0 mi NE 10.4 mph - N/A   Partly Cloudy
5:56 PM 60.1 °F 50.0 °F 69% 30.18 in 10.0 mi Calm Calm - N/A   Clear
6:56 PM 54.0 °F 48.9 °F 83% 30.19 in 10.0 mi Calm Calm - N/A   Clear
7:56 PM 52.0 °F 48.9 °F 89% 30.21 in 10.0 mi Calm Calm - N/A   Clear
8:56 PM 50.0 °F 48.0 °F 93% 30.22 in 10.0 mi Calm Calm - N/A   Clear
9:56 PM 48.9 °F 46.9 °F 93% 30.23 in 10.0 mi Calm Calm - N/A   Clear
10:56 PM 48.0 °F 46.0 °F 93% 30.23 in 10.0 mi Calm Calm - N/A   Clear
11:56 PM 46.9 °F 46.0 °F 97% 30.23 in 10.0 mi Calm Calm - N/A   Clear